Regional Weather Roundup
Issued by NWS

Home | Current Version | Previous Version | Text Only | Print | Product List | Glossary On
Versions: 1 2 3 4 5 6 7 8 9 10 11 12 13 14 15 16 17 18 19 20 21 22 23 24 25 26 27 28 29 30 31 32 33 34 35 36 37 38 39 40 41 42 43 44 45 46 47 48 49 50
000
ASUS44 KOUN 041710
RWROK

WEATHER ROUNDUP FOR OKLAHOMA
NATIONAL WEATHER SERVICE NORMAN OK
1200 PM CDT TUE AUG 04 2015

NOTE: "FAIR" INDICATES FEW OR NO CLOUDS BELOW 12,000 FEET WITH NO
      SIGNIFICANT WEATHER AND/OR OBSTRUCTIONS TO VISIBILITY.

OKZ001>007-009>012-014-015-017-041800-
NORTHWEST OKLAHOMA AND THE PANHANDLE

CITY           SKY/WX    TMP DP  RH WIND       PRES   REMARKS
GAGE           PTSUNNY   78  69  73 SE9       29.98F
GUYMON         SUNNY     78  65  63 S9        29.99S
ENID/WOODRING  PTSUNNY   81  72  74 SE8       29.97S
$$

OKZ016-021>023-033>039-044-045-041800-
SOUTHWEST OKLAHOMA

CITY           SKY/WX    TMP DP  RH WIND       PRES   REMARKS
LAWTON/REGL    LGT RAIN  77  68  73 SE16      29.95F
LAWTON/FT SILL CLOUDY    77  70  78 SE9       29.95R
FREDERICK      PTSUNNY   81  71  71 SE20      29.93F
CLINTON        MOSUNNY   82  69  64 S15       30.00S
HOBART         MOSUNNY   83  68  60 S21       29.98S
ALTUS AFB      MOSUNNY   81  68  65 SE14      29.97R
$$

OKZ018>020-024>031-041800-
CENTRAL OKLAHOMA

CITY           SKY/WX    TMP DP  RH WIND       PRES   REMARKS
OKLAHOMA CITY  PTSUNNY   79  71  76 S15       29.98S
OKC/WILEY POST PTSUNNY   78  69  73 S17G23    29.97R
OKC/TINKER AFB PTSUNNY   77  69  77 S9        29.98R
STILLWATER     CLOUDY    76  70  82 S8        29.98R
GUTHRIE        CLOUDY    77  70  79 S8        29.97S
$$

OKZ008-013-054>072-041800-
NORTHEAST OKLAHOMA

CITY           SKY/WX    TMP DP  RH WIND       PRES   REMARKS
TULSA          CLOUDY    79  70  74 SW8       29.98S
TULSA/JONES    CLOUDY    78  71  79 CALM      29.99S
PONCA CITY     RAIN      74  71  91 W5        30.01R FOG
MUSKOGEE       LGT RAIN  82  70  66 W5        30.01F
$$

OKZ032-040>043-046>053-073>077-041800-
SOUTH CENTRAL/SOUTHEAST OKLAHOMA

CITY           SKY/WX    TMP DP  RH WIND       PRES   REMARKS
ARDMORE/DWNTWN LGT RAIN  73  70  88 E5        30.00F
MCALESTER      LGT RAIN  83  69  62 W8        30.02S
$$




USA.gov is the U.S. government's official web portal to all federal, state and local government web resources and services.